Location: Audignicourt
(49.4788°N, 3.1340°E)
Time: 15:05:52
(UTC+00:00)

PSLV R/B - Pass Details

Date: 15 May 2026
Orbit: 586 x 678 km, 97.9° (Epoch: 10 June)

Event Time Altitude Azimuth Distance (km) Brightness Sun altitude
Rises 23:10:20 0° 15° (NNE) 2,876 8.1 -21.1°
Reaches altitude 10° 23:12:31 10° 19° (NNE) 1,980 7.0 -21.1°
Maximum altitude 23:16:48 67° 102° (ESE) 679 3.6 -21.2°
Enters shadow 23:17:26 58° 150° (SSE) 734 3.6 -21.2°
